Volver al catálogo

NOAA 16 DEB

ActivoPO
NORAD 42407·DEBRIS·🇺🇸 United States

Lanzado Sep 21, 2000 desde Vandenberg Space Force Base

Loading…

Próximos Pases (próximas 24 horas)

TLE

ActualizadoSource: Space-Track

Época: Sep 14, 2026, 13:44 UTC

1 42407U 00055TB  26257.57225202  .00106138  00000-0  51424-2 0  9991
2 42407  98.9505 122.3348 0007613  43.1353 317.0471 15.18039317544121

Sigue NOAA 16 DEB en tiempo real con AllMySat

Download on the App Store